Weather History for Easton, MD

Change the Weather History Date:

Saturday, January 4, 2014

  Actual Average Record
Temperature  
Mean Temperature 22 °F -  
Max Temperature 35 °F 41 °F 70 °F (1950)
Min Temperature 9 °F 28 °F 9 °F (2014)
Degree Days  
Heating Degree Days 43    
Moisture  
Dew Point 14 °F    
Average Humidity 77    
Maximum Humidity 97    
Minimum Humidity 54    
Precipitation  
Precipitation 0.00 in - - ()
Sea Level Pressure  
Sea Level Pressure 30.48 in    
Wind  
Wind Speed 2 mph (South)    
Max Wind Speed 10 mph    
Max Gust Speed -    
Visibility 10 miles    
Events      
Averages and records for this station are not official NWS values.
T = Trace of Precipitation, MM = Missing Value Source: NWS Daily Summary

Daily Weather History Graph

Daily Weather History Graph

Search for Another Location

Airport:

Trip Planner

Search our weather history database for the weather conditions in past years. The results will help you decide how hot, cold, wet, or windy it might be!

Date:

Astronomy

Jan. 04, 2014 Rise Set
Actual Time 7:22 AM EST 4:55 PM EST
Civil Twilight 6:53 AM EST 5:25 PM EST
Nautical Twilight 6:20 AM EST 5:58 PM EST
Astronomical Twilight 5:47 AM EST 6:31 PM EST
Moon 9:29 AM EST (1/4) 9:10 PM EST (1/4)
Length of Visible Light 10h 32m
Length of Day
9h 32m
Waxing Crescent, 15% of the Moon is Illuminated
Jan 4
Waxing Crescent
Jan 7
First Quarter
Jan 15
Full
Jan 24
Last Quarter
Jan 30
New

Hourly Weather History & Observations

Time (EST) Temp. Windchill Dew Point Humidity Pressure Visibility Wind Dir Wind Speed Gust Speed Precip Events Conditions
12:00 AM 13.1 °F - 7.0 °F 77% 30.54 in 10.0 mi Calm Calm - N/A   Clear
12:20 AM 12.7 °F - 7.2 °F 78% 30.54 in 10.0 mi Calm Calm - N/A   Clear
12:40 AM 11.3 °F - 6.1 °F 80% 30.54 in 10.0 mi Calm Calm - N/A   Clear
1:00 AM 11.1 °F - 6.6 °F 82% 30.53 in 10.0 mi Calm Calm - N/A   Clear
1:20 AM 11.5 °F - 6.4 °F 80% 30.53 in 10.0 mi Calm Calm - N/A   Clear
1:40 AM 10.9 °F - 5.9 °F 80% 30.53 in 10.0 mi Calm Calm - N/A   Clear
2:00 AM 11.3 °F - 5.9 °F 79% 30.54 in 10.0 mi Calm Calm - N/A   Clear
2:20 AM 11.1 °F - 7.0 °F 83% 30.55 in 10.0 mi Calm Calm - N/A   Clear
2:40 AM 10.4 °F - 6.8 °F 85% 30.55 in 10.0 mi Calm Calm - N/A   Clear
3:00 AM 11.3 °F - 6.4 °F 81% 30.55 in 10.0 mi Calm Calm - N/A   Clear
3:20 AM 10.6 °F - 6.6 °F 84% 30.54 in 10.0 mi Calm Calm - N/A   Clear
3:40 AM 10.8 °F - 6.8 °F 84% 30.54 in 10.0 mi Calm Calm - N/A   Clear
4:00 AM 10.2 °F - 6.6 °F 85% 30.53 in 10.0 mi Calm Calm - N/A   Clear
4:20 AM 10.4 °F - 6.4 °F 84% 30.55 in 10.0 mi Calm Calm - N/A   Clear
4:40 AM 10.2 °F - 6.4 °F 85% 30.55 in 10.0 mi Calm Calm - N/A   Clear
5:00 AM 9.3 °F - 6.1 °F 87% 30.55 in 10.0 mi Calm Calm - N/A   Clear
5:20 AM 12.4 °F 4.6 °F 3.9 °F 69% 30.55 in 10.0 mi SE 4.6 mph - N/A   Clear
5:22 AM 12.7 °F 5.0 °F 3.6 °F 67% 30.54 in 10.0 mi SE 4.6 mph - N/A   Clear
5:53 AM 12.2 °F 4.3 °F 3.2 °F 67% 30.55 in 10.0 mi SE 4.6 mph - N/A   Clear
6:53 AM 12.2 °F - 6.8 °F 79% 30.58 in 10.0 mi Calm Calm - N/A   Clear
7:53 AM 12.2 °F - 6.8 °F 79% 30.59 in 10.0 mi Calm Calm - N/A   Clear
8:53 AM 17.6 °F 12.3 °F 8.6 °F 68% 30.58 in 10.0 mi SSE 3.5 mph - N/A   Clear
9:53 AM 23.0 °F 17.0 °F 8.6 °F 54% 30.57 in 10.0 mi SSE 4.6 mph - N/A   Clear
10:45 AM 26.6 °F 16.8 °F 12.2 °F 55% 30.55 in 10.0 mi South 10.4 mph - N/A   Clear
11:49 AM 30.2 °F 21.9 °F 17.6 °F 60% 30.50 in 10.0 mi SSW 9.2 mph - N/A   Clear
12:47 PM 32.0 °F 24.2 °F 19.4 °F 60% 30.46 in 10.0 mi South 9.2 mph - N/A   Clear
1:50 PM 33.8 °F 26.4 °F 19.4 °F 56% 30.44 in 10.0 mi South 9.2 mph - N/A   Clear
2:45 PM 35.6 °F 29.9 °F 21.2 °F 56% 30.42 in 10.0 mi South 6.9 mph - N/A   Clear
3:45 PM 33.8 °F 26.4 °F 23.0 °F 65% 30.42 in 10.0 mi South 9.2 mph - N/A   Clear
4:45 PM 32.0 °F 25.6 °F 21.2 °F 64% 30.41 in 10.0 mi South 6.9 mph - N/A   Clear
5:50 PM 30.2 °F 24.3 °F 21.2 °F 69% 30.38 in 10.0 mi South 5.8 mph - N/A   Clear
6:45 PM 30.2 °F - 21.2 °F 69% 30.38 in 10.0 mi Calm Calm - N/A   Clear
7:45 PM 30.2 °F 21.9 °F 23.0 °F 75% 30.38 in 10.0 mi South 9.2 mph - N/A   Clear
8:45 PM 28.4 °F 24.6 °F 24.8 °F 86% 30.36 in 10.0 mi SSE 3.5 mph - N/A   Clear
9:42 PM 28.4 °F - 25.0 °F 87% 30.37 in 10.0 mi Calm Calm - N/A   Clear
10:02 PM 27.9 °F - 27.0 °F 96% 30.36 in 10.0 mi Calm Calm - N/A   Clear
10:22 PM 27.5 °F - 25.0 °F 90% 30.35 in 10.0 mi Calm Calm - N/A   Clear
10:42 PM 25.7 °F 20.1 °F 24.3 °F 94% 30.34 in 10.0 mi SSE 4.6 mph - N/A   Clear
11:02 PM 27.0 °F - 26.2 °F 97% 30.34 in 10.0 mi Calm Calm - N/A   Scattered Clouds
11:22 PM 29.3 °F - 27.9 °F 94% 30.34 in 10.0 mi Calm Calm - N/A   Mostly Cloudy
11:42 PM 31.6 °F - 29.3 °F 91% 30.33 in 10.0 mi Calm Calm - N/A   Overcast